RH
9 9 9 10 10 10 10 10 9 9 8 6 6 6 6 7 7 7 7 7 6 6 7 6 7 7 7 7 7 6 6 6 6 6 7 7 7 7 8 10 13 17 18 20 31 40 42 40 40 35 36 45 44 50 58 51 49 54 59 56 47 46 45 44 42 42 40 33 26 23 24 23 24 30 29 31 35 36 40 46 48 45 51 56 48 44 46 44
10 9 9 10 10 10 10 10 9 9 9 8 7 6 6 6 6 7 7 7 7 6 6 6 6 7 7 7 7 6 6 5 5 6 8 8 7 7 7 8 11 15 17 21 31 38 39 38 37 34 35 43 44 47 53 50 47 53 61 57 49 48 44 43 43 41 40 38 33 27 25 24 24 27 26 30 32 31 38 45 44 44 55 57 43 41 45 43
10 10 10 10 10 10 10 10 9 9 9 9 9 7 6 6 5 6 6 7 7 7 6 6 6 6 7 7 7 7 6 5 6 8 8 7 7 6 7 7 10 13 16 22 30 33 34 35 34 33 36 41 45 48 50 49 48 53 61 58 50 47 43 40 42 42 40 40 38 32 28 26 24 23 25 32 30 28 36 39 40 46 56 51 37 40 45 43
11 11 11 10 10 10 10 10 10 10 9 9 9 9 8 7 6 6 5 6 7 7 7 6 6 6 6 6 7 6 6 7 10 11 7 6 6 6 7 6 8 11 16 22 27 29 31 34 34 33 36 41 45 47 46 46 47 52 63 63 50 45 44 40 41 43 40 39 39 35 33 30 24 21 26 33 30 27 33 35 37 46 53 46 35 38 44 43
11 11 11 11 11 11 11 11 10 10 10 9 9 9 9 9 8 7 7 6 6 6 6 7 6 6 6 6 7 6 7 9 11 11 8 7 6 6 6 6 8 9 15 22 24 26 29 33 36 33 35 40 42 42 41 43 46 50 59 59 48 44 45 40 39 41 38 37 38 35 37 33 24 22 24 31 33 31 32 32 35 43 47 42 34 36 41 42
11 11 11 11 11 11 11 11 11 11 11 10 10 9 9 9 9 9 8 8 7 7 6 7 7 7 6 6 6 6 8 9 10 11 9 8 6 6 6 6 7 8 14 21 21 23 27 33 36 34 36 38 38 37 37 39 43 45 49 51 47 44 44 40 37 37 35 36 38 35 37 33 26 26 23 29 36 34 34 30 33 42 42 37 34 35 38 39
11 11 10 11 11 11 11 11 11 11 11 11 10 10 9 9 9 9 9 9 8 8 7 7 6 7 7 6 6 7 8 8 10 11 8 7 7 6 6 7 7 7 15 20 19 21 25 31 35 35 36 37 36 33 33 35 36 40 44 45 45 43 43 41 35 33 33 36 38 34 35 31 30 32 23 28 34 32 36 30 33 42 38 34 33 33 35 36
10 10 10 10 10 10 10 10 11 11 11 10 10 10 10 9 9 9 8 8 8 9 8 8 7 7 7 6 7 8 7 9 12 10 6 6 7 7 6 7 6 7 15 18 18 20 23 28 34 35 35 36 36 32 31 31 31 35 40 41 43 44 42 40 34 31 31 36 37 33 33 30 32 32 24 29 29 26 33 30 34 42 38 34 30 30 34 35
10 10 10 10 10 10 10 10 10 10 10 10 10 10 10 10 9 9 9 8 8 8 8 8 8 8 7 7 8 8 8 10 11 8 6 7 8 7 8 9 7 8 14 15 16 19 21 26 32 35 35 36 34 31 29 29 30 32 37 40 41 42 41 39 34 29 31 36 37 34 34 32 31 31 27 30 26 22 29 30 36 42 40 36 28 28 32 35
9 10 10 10 10 10 10 10 10 10 10 10 10 10 10 10 10 10 9 8 8 7 8 8 8 8 7 9 9 8 10 10 8 7 7 8 9 8 8 10 9 9 12 12 13 15 19 25 30 34 36 36 33 30 28 28 33 35 36 38 40 40 39 39 35 30 31 33 35 36 35 34 32 30 31 30 24 23 29 31 36 39 42 40 30 27 30 33
9 9 10 10 10 10 10 10 10 10 9 9 9 9 9 10 10 10 9 9 8 8 8 7 7 8 7 10 11 9 10 9 7 8 8 8 9 9 9 11 10 10 10 10 11 13 18 23 28 32 34 33 29 27 26 27 32 36 37 38 39 38 37 36 34 30 29 32 34 37 35 35 33 28 32 31 23 24 29 31 34 36 38 38 32 27 28 31
9 9 9 9 10 10 10 10 10 10 10 9 9 9 9 9 9 9 9 9 9 9 8 7 7 7 8 11 11 9 9 8 7 7 8 8 8 8 9 9 10 10 9 9 10 12 17 22 25 28 30 30 28 26 26 26 28 30 33 36 37 37 34 31 31 28 28 31 34 36 36 38 36 29 31 29 22 25 29 30 34 34 33 33 31 27 26 29
9 9 9 9 9 9 10 10 10 10 10 10 9 9 9 9 9 9 9 9 9 9 8 8 7 7 9 11 9 8 9 8 8 7 7 8 7 7 7 8 9 9 9 8 9 12 16 19 22 25 28 29 28 27 27 25 25 26 27 30 35 36 31 24 25 26 25 28 32 34 39 41 38 33 32 28 22 24 28 30 33 34 33 30 30 27 24 27
9 9 9 9 9 9 9 9 9 10 9 10 9 9 9 8 9 8 9 9 8 9 8 8 8 9 13 11 7 8 9 8 9 8 7 7 6 7 6 7 8 8 9 8 8 12 15 18 20 23 26 25 26 27 27 26 24 25 25 26 29 34 34 25 22 24 25 28 31 34 43 46 38 33 33 27 21 23 27 31 32 35 35 31 28 26 23 24
9 9 9 9 9 9 9 9 8 9 9 9 9 9 9 9 8 8 9 8 9 9 8 8 9 11 14 11 8 9 8 9 9 8 6 6 6 7 7 7 7 8 8 8 8 10 14 17 18 20 22 24 26 24 25 26 25 25 26 26 26 29 37 32 22 23 28 31 31 32 43 46 37 33 31 26 22 22 24 28 32 35 36 33 28 26 24 23
9 9 9 9 9 9 9 9 8 9 8 8 9 8 8 8 8 8 8 8 9 8 9 13 15 14 12 9 9 9 8 9 9 7 7 6 6 9 10 7 7 8 7 8 8 8 11 15 17 19 22 26 25 21 23 27 27 26 26 28 29 28 35 37 25 22 29 33 31 31 40 45 39 34 30 26 23 21 22 26 30 32 34 34 29 25 25 23
9 9 9 9 9 9 9 9 9 9 9 9 8 8 8 8 8 8 8 8 8 9 9 14 19 17 11 9 9 9 9 10 9 8 7 6 6 10 13 9 7 8 7 7 7 7 9 12 16 19 21 22 21 21 26 28 28 29 27 28 31 30 33 38 30 22 28 34 32 32 39 46 43 34 30 28 26 23 23 25 29 30 30 33 30 27 24 21
11 10 9 9 8 9 9 9 9 9 9 9 9 9 8 8 8 8 8 9 10 13 12 14 17 15 12 12 10 9 11 11 9 8 8 7 6 7 10 10 9 8 7 7 7 7 9 10 14 16 17 19 19 22 25 26 28 31 29 28 31 32 30 35 34 26 28 34 34 34 39 45 43 37 34 31 30 29 26 25 28 28 30 35 34 29 26 20
13 11 10 9 9 9 9 8 9 9 8 9 9 9 9 10 11 12 13 15 16 15 14 16 15 11 11 14 12 10 13 12 9 8 8 8 7 6 8 11 12 10 8 9 7 7 9 9 11 13 13 16 18 20 21 23 28 30 30 29 31 33 29 32 36 32 30 34 34 34 37 40 43 45 42 37 35 34 30 28 29 28 28 34 34 31 29 22
15 13 12 10 9 9 9 9 9 8 9 9 9 10 11 13 14 14 16 19 17 14 12 14 13 8 9 11 10 11 12 11 8 8 8 8 8 8 9 11 13 11 9 9 8 7 8 8 9 10 11 14 17 18 19 22 28 30 30 30 30 31 29 30 35 35 31 32 34 34 35 38 40 45 44 38 36 35 33 32 32 29 28 30 30 30 30 24
17 16 14 12 11 10 9 9 9 9 10 10 9 12 13 12 11 12 12 12 12 11 10 10 9 8 7 8 9 9 10 9 8 8 8 9 9 10 10 11 12 12 9 8 8 7 8 8 7 9 10 13 16 20 21 21 27 30 30 30 29 29 28 28 32 36 33 32 36 35 35 37 38 40 38 35 35 35 35 34 33 32 29 29 29 30 30 26
19 18 17 15 13 11 10 10 9 10 10 10 11 13 14 13 12 12 11 9 8 8 8 8 8 7 6 7 8 8 8 8 8 8 8 10 10 11 10 11 11 11 9 8 8 8 7 7 7 7 9 12 16 20 22 21 24 30 31 30 30 28 28 27 29 35 36 34 36 36 35 36 36 37 37 37 37 36 36 35 34 35 33 31 31 30 28 27
21 20 19 18 15 13 12 11 11 12 11 12 14 15 14 14 13 12 12 10 8 8 7 7 7 7 6 6 6 7 7 6 6 7 8 10 10 10 10 10 10 10 10 8 8 8 7 6 6 6 8 11 15 18 20 20 22 29 31 30 31 30 27 28 29 34 37 36 37 37 36 37 38 37 39 40 39 37 37 36 34 36 36 35 33 31 28 26
21 21 21 20 18 15 13 12 13 14 13 14 16 16 15 14 13 13 13 11 9 8 7 7 7 7 7 7 7 7 6 6 6 7 8 9 10 10 10 10 9 10 11 9 8 8 7 6 5 6 8 9 13 16 18 20 21 26 30 30 32 30 26 28 32 35 39 39 39 39 39 39 40 39 38 39 39 38 37 37 36 36 36 37 36 35 34 31
22 21 21 21 20 18 15 17 18 16 14 16 17 17 16 15 14 13 14 13 10 9 9 8 7 7 7 7 7 6 6 7 6 7 8 8 9 10 10 11 10 9 11 11 10 8 8 8 7 6 8 9 12 15 16 19 21 24 28 30 30 30 27 27 32 37 42 42 40 39 41 40 38 39 40 39 38 38 36 36 37 38 37 38 38 36 36 36
23 22 22 21 21 19 17 20 21 16 15 18 19 18 17 16 14 14 16 15 12 10 10 9 8 8 8 8 8 7 8 7 6 7 9 8 9 11 10 11 11 10 12 13 12 10 9 9 9 6 7 9 10 13 15 18 21 24 27 29 30 29 28 29 31 36 42 43 40 39 40 41 40 40 40 39 38 38 38 36 37 40 39 37 38 40 38 34
25 24 23 22 22 21 19 19 18 16 18 20 19 18 18 16 15 16 18 17 14 12 12 11 11 10 10 9 8 8 10 9 8 9 9 9 9 10 11 11 11 11 12 14 14 12 9 9 9 7 7 8 9 11 14 16 18 22 25 28 30 30 29 30 31 35 40 42 41 40 39 42 44 41 38 37 38 38 40 40 38 39 37 33 34 39 40 35
27 25 24 23 22 22 21 19 17 17 20 21 20 19 17 16 16 19 22 21 17 14 14 13 13 12 12 11 9 9 12 12 11 11 10 9 10 10 10 11 12 11 12 14 15 13 11 9 8 7 7 8 8 9 11 14 16 19 25 27 28 29 29 31 32 35 38 41 43 41 38 41 44 42 38 36 37 37 38 40 39 37 36 35 34 37 40 38
29 28 25 25 23 23 24 21 18 18 19 19 19 18 16 17 18 20 22 22 17 14 14 14 14 13 13 13 11 11 13 13 13 13 11 11 10 10 11 10 12 14 13 13 14 14 12 9 7 8 9 7 8 9 10 14 16 16 23 27 27 27 28 30 32 33 37 41 45 43 40 41 42 41 39 37 36 36 36 38 39 38 38 37 38 44 49 43
32 30 28 27 25 25 26 23 21 21 20 18 17 17 17 20 23 22 21 20 16 14 15 15 14 14 13 14 13 13 14 13 14 14 13 12 10 11 11 10 11 15 15 14 13 14 13 11 9 8 9 8 8 9 10 13 16 15 19 26 28 27 27 28 30 32 37 43 44 42 41 42 40 37 36 37 36 37 38 39 39 38 37 35 36 44 50 47
34 32 30 29 27 26 25 25 27 26 22 19 18 19 19 21 23 23 21 19 16 15 15 14 14 14 14 14 14 13 13 13 14 14 13 12 11 10 11 11 11 13 17 16 14 14 13 12 10 8 8 9 8 9 9 10 14 15 18 24 27 26 27 30 31 33 38 41 41 39 39 41 41 36 33 35 35 36 39 40 39 36 35 34 33 34 37 41
34 33 31 30 29 28 26 26 27 27 22 19 20 21 21 22 23 22 20 18 17 17 16 15 15 15 15 14 14 15 14 13 13 13 12 12 11 10 10 12 11 12 16 17 15 15 14 11 12 11 8 9 9 8 7 9 12 15 17 23 27 27 31 36 34 33 35 37 38 38 38 39 39 35 34 35 34 34 37 39 37 35 35 37 36 33 31 37
35 34 33 31 29 30 29 26 26 24 21 21 23 23 22 24 23 20 19 19 18 17 17 17 16 16 15 14 15 16 16 15 15 14 13 12 11 10 10 11 11 11 13 16 17 17 16 12 11 13 10 8 8 7 7 8 10 12 15 22 27 27 33 38 35 34 34 34 35 36 38 38 36 34 35 35 35 35 36 37 36 33 35 38 38 38 37 35
36 34 34 32 30 30 29 28 29 27 23 24 25 24 23 24 21 19 19 18 18 19 19 18 18 17 16 14 14 16 16 15 16 16 15 13 12 11 11 10 10 10 11 14 17 17 17 14 11 12 11 9 8 7 7 7 9 11 12 19 26 26 31 35 33 33 34 33 34 35 38 39 36 35 35 35 34 35 36 36 35 33 35 37 38 42 41 34
36 34 33 33 34 34 34 34 33 31 30 29 27 24 23 22 20 20 20 19 19 19 19 19 20 19 18 16 15 15 15 15 15 17 18 16 14 13 12 11 9 10 12 14 16 16 16 14 11 11 11 10 7 6 6 7 11 13 11 17 24 25 29 32 30 32 34 33 33 34 36 36 35 35 35 35 33 34 35 34 35 34 35 37 36 37 39 33
35 34 33 35 36 37 40 40 37 36 37 33 28 24 22 21 20 20 20 19 20 19 19 20 21 20 20 18 16 15 16 16 16 17 17 17 16 15 14 13 10 10 11 13 14 15 15 14 12 12 12 11 8 7 7 7 11 15 12 14 20 23 26 29 29 30 33 32 32 31 32 33 33 32 33 35 34 33 34 33 34 35 35 36 33 32 35 31
34 35 37 35 33 37 43 43 39 41 42 36 30 26 21 21 22 21 20 20 20 20 20 20 20 20 20 20 18 17 17 17 17 17 18 17 17 16 15 15 13 11 11 12 13 14 15 16 15 12 12 13 11 9 9 6 9 16 15 12 17 23 25 26 29 31 32 33 31 28 28 29 30 29 30 33 32 30 31 32 33 34 33 32 29 29 33 31
34 38 39 35 34 40 43 42 42 45 43 38 34 30 25 23 22 21 21 20 21 23 22 20 20 20 20 19 18 18 19 18 18 18 19 18 17 16 16 16 15 13 11 11 13 14 14 16 17 14 13 13 13 10 10 8 7 12 14 13 16 22 25 27 28 30 31 32 30 28 27 26 27 28 30 32 30 26 27 31 33 33 31 30 30 30 31 33
36 38 38 38 40 42 39 39 43 46 44 42 39 34 30 27 24 23 22 21 21 24 26 24 22 20 20 19 18 18 18 19 19 19 19 19 18 17 16 16 16 15 14 12 13 14 15 15 17 16 14 13 13 11 10 9 7 7 11 16 19 20 23 27 27 27 30 32 31 30 29 27 26 28 30 33 32 27 25 28 31 29 27 28 31 31 28 29
40 36 36 40 41 40 37 38 41 42 45 46 42 36 33 30 28 26 24 24 22 22 25 26 25 23 22 20 19 18 18 18 19 19 19 18 17 17 17 17 16 16 15 14 13 14 17 17 16 18 17 13 12 12 10 8 9 6 6 13 20 20 20 24 24 24 28 31 30 31 31 30 28 27 28 32 34 30 25 26 27 25 24 26 29 30 28 27
42 37 38 42 42 40 40 38 38 40 43 45 42 40 37 32 31 29 27 26 25 22 23 24 25 25 24 23 22 21 20 20 19 20 20 18 18 20 19 17 17 17 17 17 15 14 16 17 17 19 19 15 11 11 11 8 8 8 6 7 15 21 22 23 24 26 27 27 27 30 32 31 28 26 27 30 33 32 28 26 26 26 26 27 28 30 31 30
40 38 42 46 43 40 38 38 39 40 41 41 40 40 40 36 33 31 29 28 26 24 23 23 24 24 24 25 24 23 23 23 22 21 21 20 21 23 22 19 18 18 18 19 17 15 15 16 17 17 18 16 12 10 11 10 8 10 10 7 9 17 23 26 26 26 26 25 25 27 29 29 28 26 27 29 31 32 30 28 27 29 29 28 28 29 30 32
36 36 40 43 40 35 35 37 39 39 38 37 38 39 39 39 37 35 33 31 28 26 25 25 24 24 24 24 24 24 24 25 25 24 22 21 24 25 23 21 19 18 18 19 17 16 16 17 18 18 17 18 17 13 11 11 10 10 11 11 9 11 17 24 26 25 25 26 27 28 29 28 26 26 27 30 32 31 31 31 31 32 33 30 28 27 28 30
33 33 35 39 40 37 38 40 39 39 38 37 37 39 39 38 39 40 39 36 33 30 29 28 27 25 24 24 24 24 24 25 25 25 23 21 22 24 24 22 21 19 19 20 20 19 18 18 20 21 19 19 20 17 13 10 10 9 9 11 11 9 11 17 24 27 26 25 26 28 29 27 27 27 27 29 32 32 31 32 32 33 32 29 28 27 27 29
33 33 34 38 43 42 42 43 41 41 44 45 43 42 42 41 40 41 42 40 39 37 33 32 30 27 26 25 25 24 24 25 24 24 24 23 22 23 22 22 22 20 19 22 25 24 22 21 21 21 21 20 18 16 13 11 11 9 8 9 10 11 11 12 16 22 25 26 28 29 27 26 26 28 28 28 30 32 32 31 30 28 27 26 27 28 28 29
40 39 35 37 45 47 47 49 50 49 51 55 55 51 51 51 49 49 49 47 45 44 42 38 34 32 29 27 26 25 25 25 25 25 25 24 23 22 21 21 21 21 22 22 24 26 26 25 24 22 21 19 17 17 17 16 15 14 10 8 9 12 13 13 15 16 19 26 31 29 27 27 26 28 29 27 28 31 30 26 25 26 26 24 26 28 29 30
47 43 38 39 46 50 51 56 64 67 61 61 64 62 62 64 62 61 60 55 51 49 48 45 41 37 32 29 28 27 26 26 25 26 25 23 22 20 19 19 19 22 24 21 21 24 25 25 24 23 22 21 19 21 21 20 19 18 16 12 10 11 13 16 17 15 14 22 26 24 27 30 26 27 31 28 27 30 29 25 24 24 24 24 25 27 29 30
52 47 44 47 52 56 59 63 73 80 76 71 71 69 70 72 70 68 67 63 58 52 49 48 46 43 39 35 31 29 28 27 26 26 25 23 22 21 19 17 17 21 23 20 20 23 25 25 23 22 23 22 21 22 25 27 26 23 22 20 16 13 11 13 16 15 14 19 20 19 25 27 21 21 27 28 28 29 27 25 23 21 20 20 20 23 27 29
59 55 51 52 55 57 62 67 73 79 79 78 76 73 73 74 72 71 69 69 67 61 54 50 47 45 44 42 38 34 31 30 28 27 26 24 23 22 21 20 20 21 23 22 21 22 26 27 25 23 23 23 21 20 22 28 31 29 27 25 24 22 17 13 13 13 14 17 16 18 25 27 22 18 18 19 24 29 30 28 23 19 19 19 18 20 23 28
67 65 60 58 56 54 58 64 68 71 70 70 70 70 71 71 71 71 71 73 75 72 68 65 59 52 50 49 45 41 37 33 31 29 27 25 23 21 22 27 29 27 24 23 23 24 26 28 28 26 26 25 23 22 20 23 28 30 29 28 28 26 24 21 16 13 13 16 15 16 22 25 22 21 20 17 16 22 28 30 24 19 19 19 19 20 20 25
73 71 65 61 57 54 55 58 62 65 66 65 63 62 63 65 67 70 71 72 72 72 75 78 72 62 56 54 51 47 44 44 42 38 34 31 28 24 23 29 36 36 29 23 24 27 29 29 28 30 32 30 29 28 24 23 26 30 30 29 29 27 26 27 23 18 14 14 14 14 17 18 16 20 26 24 17 16 20 23 21 19 19 19 20 20 19 21
83 82 76 69 62 57 56 57 59 63 65 66 66 64 62 63 66 70 71 67 64 69 76 79 74 68 63 62 63 59 56 56 54 49 46 44 40 33 29 31 38 39 34 27 24 27 31 32 32 34 35 34 32 31 27 27 32 33 27 24 26 29 30 29 27 24 20 16 16 13 11 13 13 15 20 22 20 17 16 16 17 17 18 18 18 17 17 18